Moultrie, GA

5:50 AM EDT on May 30, 2017 (GMT -0400)
Moultrie Municipal

Weather History for KMGR - October, 2012

Change the Weather History Date:

Monday, October 29, 2012

  Actual Average (KMUL) Record (KMUL)
Temperature  
Mean Temperature 54 °F -  
Max Temperature 64 °F 76 °F 91 °F (1947)
Min Temperature 44 °F 50 °F 32 °F (1957)
Degree Days  
Heating Degree Days 11    
Growing Degree Days 4 (Base 50)    
Moisture  
Dew Point 34 °F    
Average Humidity 49    
Maximum Humidity 76    
Minimum Humidity 24    
Precipitation  
Precipitation 0.00 in - - ()
Sea Level Pressure  
Sea Level Pressure 29.86 in    
Wind  
Wind Speed 10 mph (NW)    
Max Wind Speed 17 mph    
Max Gust Speed 28 mph    
Visibility 10 miles    
Events      
Averages and records for this station are not official NWS values.
T = Trace of Precipitation, MM = Missing Value Source: NWS Daily Summary

Daily Weather History Graph

Daily Weather History Graph

Search for Another Location

Airport or City:

Trip Planner

Search our weather history database for the weather conditions in past years. The results will help you decide how hot, cold, wet, or windy it might be!

Date:

Astronomy

Oct. 29, 2012 Rise Set
Actual Time 7:48 AM EDT 6:48 PM EDT
Civil Twilight 7:23 AM EDT 7:13 PM EDT
Nautical Twilight 6:55 AM EDT 7:42 PM EDT
Astronomical Twilight 6:26 AM EDT 8:10 PM EDT
Moon 6:43 PM EDT (10/29) 7:36 AM EDT (10/29)
Length of Visible Light 11h 49m
Length of Day
11h 00m
Full, 100% of the Moon is Illuminated
Oct 29
Full
Oct 29
Full
Nov 6
Last Quarter
Nov 13
New
Nov 20
First Quarter

Hourly Weather History & Observations

Time (EDT) Temp. Windchill Dew Point Humidity Pressure Visibility Wind Dir Wind Speed Gust Speed Precip Events Conditions
12:15 AM 53.6 °F - 41.0 °F 62% 29.87 in 10.0 mi NW 8.1 mph 16.1 mph N/A   Clear
12:55 AM 53.6 °F - 39.2 °F 58% 29.87 in 10.0 mi NW 12.7 mph 20.7 mph N/A   Clear
1:15 AM 53.6 °F - 37.4 °F 54% 29.88 in 10.0 mi NW 6.9 mph 18.4 mph N/A   Clear
1:35 AM 53.6 °F - 37.4 °F 54% 29.88 in 10.0 mi NW 12.7 mph 17.3 mph N/A   Clear
1:55 AM 51.8 °F - 37.4 °F 58% 29.88 in 10.0 mi NW 9.2 mph 16.1 mph N/A   Clear
2:15 AM 51.8 °F - 37.4 °F 58% 29.88 in 10.0 mi NW 12.7 mph 17.3 mph N/A   Clear
2:35 AM 51.8 °F - 37.4 °F 58% 29.87 in 10.0 mi NW 10.4 mph - N/A   Clear
2:55 AM 51.8 °F - 37.4 °F 58% 29.87 in 10.0 mi NW 10.4 mph - N/A   Clear
3:15 AM 50.0 °F - 37.4 °F 62% 29.86 in 10.0 mi WNW 8.1 mph - N/A   Clear
3:35 AM 50.0 °F - 37.4 °F 62% 29.86 in 10.0 mi WNW 6.9 mph - N/A   Clear
3:55 AM 50.0 °F - 37.4 °F 62% 29.87 in 10.0 mi NW 6.9 mph - N/A   Clear
4:15 AM 50.0 °F - 37.4 °F 62% 29.86 in 10.0 mi WNW 6.9 mph - N/A   Clear
4:35 AM 48.2 °F - 37.4 °F 66% 29.86 in 10.0 mi West 5.8 mph - N/A   Clear
4:55 AM 48.2 °F - 37.4 °F 66% 29.87 in 10.0 mi WNW 6.9 mph - N/A   Clear
5:15 AM 46.4 °F 41.5 °F 37.4 °F 71% 29.87 in 10.0 mi WNW 10.4 mph - N/A   Clear
5:35 AM 46.4 °F 42.4 °F 37.4 °F 71% 29.86 in 10.0 mi WNW 8.1 mph - N/A   Clear
5:55 AM 46.4 °F 42.4 °F 39.2 °F 76% 29.87 in 10.0 mi WNW 8.1 mph - N/A   Clear
6:15 AM 46.4 °F 42.9 °F 39.2 °F 76% 29.87 in 10.0 mi WNW 6.9 mph - N/A   Clear
6:35 AM 46.4 °F 41.9 °F 37.4 °F 71% 29.88 in 10.0 mi WNW 9.2 mph - N/A   Clear
6:55 AM 46.4 °F 41.9 °F 37.4 °F 71% 29.88 in 10.0 mi WNW 9.2 mph - N/A   Clear
7:15 AM 46.4 °F 41.9 °F 37.4 °F 71% 29.88 in 10.0 mi WNW 9.2 mph - N/A   Clear
7:55 AM 44.6 °F 39.2 °F 37.4 °F 76% 29.89 in 10.0 mi WNW 10.4 mph - N/A   Clear
8:15 AM 44.6 °F 39.7 °F 37.4 °F 76% 29.90 in 10.0 mi WNW 9.2 mph - N/A   Clear
8:35 AM 46.4 °F 41.1 °F 35.6 °F 66% 29.90 in 10.0 mi NW 11.5 mph - N/A   Clear
8:55 AM 46.4 °F 41.5 °F 35.6 °F 66% 29.91 in 10.0 mi NW 10.4 mph 19.6 mph N/A   Clear
9:15 AM 48.2 °F - 35.6 °F 62% 29.91 in 10.0 mi NW 13.8 mph 19.6 mph N/A   Clear
9:35 AM 50.0 °F - 35.6 °F 58% 29.91 in 10.0 mi NW 11.5 mph 19.6 mph N/A   Clear
9:55 AM 50.0 °F - 35.6 °F 58% 29.91 in 10.0 mi NW 12.7 mph 18.4 mph N/A   Clear
10:15 AM 51.8 °F - 35.6 °F 54% 29.92 in 10.0 mi NW 15.0 mph 24.2 mph N/A   Clear
10:35 AM 51.8 °F - 35.6 °F 54% 29.92 in 10.0 mi NW 12.7 mph 17.3 mph N/A   Clear
10:55 AM 51.8 °F - 35.6 °F 54% 29.91 in 10.0 mi WNW 11.5 mph 21.9 mph N/A   Clear
11:15 AM 53.6 °F - 35.6 °F 51% 29.92 in 10.0 mi NNW 13.8 mph 19.6 mph N/A   Clear
11:35 AM 55.4 °F - 33.8 °F 44% 29.91 in 10.0 mi NW 15.0 mph 21.9 mph N/A   Clear
11:55 AM 55.4 °F - 33.8 °F 44% 29.90 in 10.0 mi NW 9.2 mph 20.7 mph N/A   Clear
12:15 PM 57.2 °F - 33.8 °F 41% 29.89 in 10.0 mi NW 10.4 mph 21.9 mph N/A   Clear
12:35 PM 59.0 °F - 33.8 °F 39% 29.88 in 10.0 mi NW 11.5 mph - N/A   Clear
12:55 PM 59.0 °F - 33.8 °F 39% 29.87 in 10.0 mi NW 13.8 mph 21.9 mph N/A   Clear
1:55 PM 62.6 °F - 32.0 °F 32% 29.83 in 10.0 mi WNW 16.1 mph 23.0 mph N/A   Clear
2:35 PM 62.6 °F - 30.2 °F 30% 29.81 in 10.0 mi NW 16.1 mph 23.0 mph N/A   Clear
2:55 PM 64.4 °F - 28.4 °F 26% 29.81 in 10.0 mi WNW 12.7 mph 23.0 mph N/A   Clear
3:15 PM 64.4 °F - 28.4 °F 26% 29.80 in 10.0 mi NW 12.7 mph 25.3 mph N/A   Clear
3:35 PM 64.4 °F - 28.4 °F 26% 29.80 in 10.0 mi WNW 12.7 mph 26.5 mph N/A   Clear
4:15 PM 64.4 °F - 30.2 °F 28% 29.79 in 10.0 mi NW 15.0 mph 26.5 mph N/A   Clear
4:35 PM 64.4 °F - 28.4 °F 26% 29.78 in 10.0 mi WNW 17.3 mph 25.3 mph N/A   Clear
4:55 PM 64.4 °F - 28.4 °F 26% 29.78 in 10.0 mi NW 15.0 mph 24.2 mph N/A   Clear
5:15 PM 62.6 °F - 26.6 °F 26% 29.77 in 10.0 mi WNW 16.1 mph 25.3 mph N/A   Clear
5:35 PM 62.6 °F - 24.8 °F 24% 29.77 in 10.0 mi NW 11.5 mph 27.6 mph N/A   Clear
5:55 PM 62.6 °F - 26.6 °F 26% 29.78 in 10.0 mi NW 15.0 mph 24.2 mph N/A   Clear
6:15 PM 60.8 °F - 28.4 °F 29% 29.78 in 10.0 mi NW 13.8 mph 20.7 mph N/A   Clear
6:35 PM 60.8 °F - 28.4 °F 29% 29.79 in 10.0 mi NW 11.5 mph 20.7 mph N/A   Clear
6:55 PM 59.0 °F - 28.4 °F 31% 29.80 in 10.0 mi WNW 12.7 mph 18.4 mph N/A   Clear
7:15 PM 59.0 °F - 28.4 °F 31% 29.80 in 10.0 mi WNW 11.5 mph 18.4 mph N/A   Clear
7:35 PM 59.0 °F - 28.4 °F 31% 29.80 in 10.0 mi WNW 10.4 mph - N/A   Clear
7:55 PM 57.2 °F - 28.4 °F 33% 29.82 in 10.0 mi WNW 8.1 mph - N/A   Clear
8:15 PM 55.4 °F - 30.2 °F 38% 29.82 in 10.0 mi WNW 9.2 mph - N/A   Clear
8:35 PM 55.4 °F - 28.4 °F 36% 29.83 in 10.0 mi WNW 8.1 mph - N/A   Clear
8:55 PM 55.4 °F - 30.2 °F 38% 29.83 in 10.0 mi WNW 5.8 mph - N/A   Clear
11:35 PM 51.8 °F - 30.2 °F 44% 29.87 in 10.0 mi WNW 6.9 mph - N/A   Clear
11:55 PM 51.8 °F - 30.2 °F 44% 29.86 in 10.0 mi West 8.1 mph - N/A   Clear